CAPE
3880 3833 3933 4048 3856 3883 3978 3890 3805 3712 3645 3480 3362 3152 3129 3104 2973 2823 2893 2905 2812 2610 2440 2328 2278 2302 2212 2008 2146 2313 2354 2340 2103 1810 1767 1686 1484 1347 1136 987 836 717 609 532 436 408 641 662 565 520 540 520 432 314 3 37 1 3 0 0 0 0 0 0 0 0 0 0 0 0 0 0 0 0 0 0 0 0 0 0 0 0 0 0 0
4146 3991 3949 3909 3832 3809 3880 3938 3890 3775 3675 3526 3343 3232 3083 3018 3016 2755 2825 2960 2772 2540 2480 2324 2104 2110 1986 1937 1954 2160 2168 2171 2062 1728 1739 1596 1453 1178 1055 891 733 633 587 552 505 334 302 326 320 391 349 222 55 12 4 0 0 0 0 0 0 0 0 0 0 0 0 0 0 0 0 0 0 0 0 0 0 0 0 0 0 0 0 0 0
3992 4138 4156 4019 4033 3962 3965 4014 3983 3885 3729 3652 3459 3313 3235 3110 3020 2812 2713 2923 2628 2356 2301 2342 2262 2060 1932 1789 1806 1903 2063 2072 1928 1843 1715 1478 1264 1097 1021 940 795 680 635 614 552 341 325 216 136 112 154 96 45 0 0 0 0 0 0 0 0 0 0 0 0 0 0 0 0 0 0 0 0 0 0 0 0 0 0 0 0 0 0 0 0
3415 3504 3446 3401 4242 4157 4043 3936 3979 3871 3690 3701 3654 3471 3364 3216 3019 2833 2654 2845 2715 2309 2317 2388 2209 2012 1838 1795 1775 1777 1823 1854 1860 1827 1590 1417 1287 1160 1068 985 844 734 684 708 639 368 202 84 64 73 74 8 0 0 0 0 0 0 0 0 0 0 0 0 0 0 0 0 0 0 0 0 0 0 0 0 0 0 0 0 0 0 0 0 0
2369 2088 2356 3141 3632 4191 4087 4020 3882 3814 3734 3711 3777 3708 3510 3356 3044 2846 2722 2785 2704 2342 2217 2188 2225 1998 2000 1702 1651 1661 1780 1742 1850 1716 1530 1422 1297 1190 1113 976 857 765 792 813 667 458 141 18 1 3 10 0 0 0 0 0 0 0 0 0 0 0 0 0 0 0 0 0 0 0 0 0 0 0 0 0 0 0 0 0 0 0 0 0 0
2000 1862 2246 2660 3482 4174 4092 3894 3775 3760 3745 3712 3775 3794 3655 3435 3215 2715 2598 2770 2552 2266 2306 2326 2081 1948 1833 1744 1558 1469 1638 1914 1892 1752 1620 1494 1348 1194 1057 884 799 781 886 828 671 534 44 0 0 0 0 0 0 0 0 0 0 0 0 0 0 0 0 0 0 0 0 0 0 2 0 0 0 0 0 0 0 0 0 0 0 0 0 0 0
2155 1912 2538 2933 4032 3982 4054 3833 3658 3710 3675 3715 3730 3783 3727 3497 3290 3006 2631 2748 2423 2150 2387 2422 2099 1959 1932 1750 1601 1458 1543 1876 1856 1729 1574 1454 1298 1110 902 774 728 799 884 755 696 583 104 0 0 0 0 0 0 0 0 0 0 0 0 0 0 0 0 0 0 0 0 0 0 0 0 0 0 0 0 0 0 0 0 0 0 0 0 0 0
2230 2373 2608 3052 3885 4126 4006 3713 3532 3567 3634 3683 3732 3764 3721 3582 3335 2980 2754 2620 2448 2317 2482 2437 2184 2030 2067 1949 1845 1526 1311 1648 1694 1606 1478 1273 1066 921 802 751 722 797 786 703 744 623 195 0 0 0 0 0 0 0 0 0 0 0 0 0 0 0 0 0 0 0 0 0 0 0 0 0 0 0 0 0 0 0 0 0 0 0 0 0 0
1934 2048 2189 2534 3346 3954 4088 3705 3461 3420 3413 3587 3681 3695 3693 3647 3445 3008 2790 2664 2525 2352 2506 2470 2234 2156 2113 1952 1811 1579 1334 1390 1519 1566 1402 1256 1125 1029 868 761 727 710 708 730 749 663 262 0 0 0 0 0 0 0 0 0 0 0 0 0 0 0 0 0 0 0 0 0 0 1 0 0 0 0 0 0 0 0 0 0 0 0 0 0 0
1637 1799 1920 2339 3070 3701 4051 3825 3557 3458 3424 3480 3589 3659 3619 3590 3512 3176 2889 2737 2604 2416 2535 2492 2368 2382 2140 1970 1804 1525 1432 1399 1561 1540 1422 1266 1164 1038 877 766 669 616 685 809 865 718 392 13 0 0 0 0 0 0 0 0 0 0 0 0 0 0 0 0 0 0 0 0 4 6 0 0 0 0 0 0 0 0 0 0 0 0 0 0 0
1788 1784 1696 1787 2588 3324 3870 3776 3634 3556 3411 3341 3394 3524 3575 3578 3544 3255 2950 2772 2614 2489 2265 2524 2359 2356 2204 1985 1851 1665 1493 1384 1376 1503 1402 1278 1215 1056 849 733 595 593 770 846 884 836 501 316 0 0 0 0 0 0 0 0 0 0 0 0 0 0 0 0 0 0 4 2 9 6 0 0 0 0 0 0 0 0 0 0 0 0 0 0 0
1665 1917 1836 1951 2211 2760 3217 3511 3494 3404 3381 3272 3312 3367 3438 3504 3450 3272 3008 2739 2587 2462 2555 2547 2463 2342 2239 2047 2008 1905 1665 1486 1394 1501 1395 1319 1250 1082 818 669 567 716 958 966 978 908 615 397 317 290 261 237 9 0 0 0 0 0 0 0 0 0 0 1 0 6 9 11 10 3 0 0 0 0 0 0 0 0 0 0 0 0 0 0 0
967 1868 2302 2041 1793 1941 2174 2882 3156 3164 3227 3237 3216 3179 3256 3407 3466 3326 3062 2843 2633 2663 2493 2479 2487 2401 2265 2128 2066 2057 1891 1667 1401 1383 1385 1310 1227 1085 839 634 654 978 1010 946 936 955 688 479 439 429 386 290 78 0 0 0 0 0 0 0 0 64 57 60 41 6 12 28 13 4 0 0 0 0 0 0 0 0 0 0 0 0 0 0 0
182 1362 1848 2076 1848 1669 1590 1919 2574 2644 2948 3186 3042 2974 3068 3240 3385 3329 3117 2889 2698 2543 2403 2312 2430 2412 2339 2190 2070 2035 1949 1806 1486 1333 1248 1252 1176 1086 878 662 810 1032 1027 991 965 935 826 570 513 494 427 304 124 0 0 0 0 0 0 0 0 26 66 75 70 26 29 0 0 1 0 0 0 0 0 0 0 0 0 0 0 0 0 0 0
602 490 1283 1698 1672 1480 1410 1364 1548 2140 2603 2773 3034 2960 2988 3123 3256 3218 3066 2860 2678 2540 2426 2303 2268 2353 2324 2251 2140 2044 1928 1850 1628 1418 1248 1185 1145 1015 802 654 910 1038 1038 1049 984 869 829 679 509 463 405 279 0 0 0 21 0 0 0 0 0 0 0 89 100 76 9 2 12 1 0 0 0 0 0 0 0 0 0 0 0 0 0 0 0
631 612 980 1343 1488 1386 1374 1494 1519 1895 2338 2546 2742 2654 2714 2968 3088 3103 3009 2877 2675 2519 2396 2297 2170 2155 2315 2209 2114 1996 1892 1832 1666 1422 1248 1178 1130 1001 750 677 884 1067 1077 1107 1008 858 870 694 520 446 332 213 134 136 138 118 0 0 0 0 0 0 20 100 96 70 28 15 11 0 0 0 0 0 0 0 0 0 0 0 0 0 0 0 0
1213 737 889 1172 1054 1000 1184 1694 1397 1469 1667 2193 2460 2529 2627 2888 3067 2977 2879 2811 2667 2492 2371 2286 2163 2133 2238 2122 2050 1970 1858 1788 1690 1579 1382 1257 1141 1024 823 690 896 1057 1149 1084 962 858 819 755 525 406 287 226 176 150 162 139 130 37 0 0 2 8 16 98 63 0 0 1 1 0 0 0 0 0 0 0 0 0 0 0 0 0 0 0 0
987 756 456 1064 1060 811 808 1078 1249 1554 1590 1877 2087 2506 2439 2682 2956 2844 2745 2664 2596 2466 2304 2164 2120 2141 2112 2074 2028 1889 1799 1764 1681 1565 1440 1393 1291 1137 1008 769 939 1109 1073 953 863 794 788 738 523 401 290 250 229 195 194 173 161 152 140 123 86 123 114 66 17 0 6 4 0 0 0 0 0 0 0 0 0 0 0 0 0 0 0 0 0
862 907 894 693 1108 858 754 1038 1087 1040 1228 1835 2126 2217 2372 2484 2720 2711 2652 2564 2489 2413 2256 2080 2090 2060 2033 2022 1957 1798 1754 1746 1658 1532 1470 1372 1258 1174 1104 795 964 1131 1010 819 737 737 812 725 533 373 291 267 265 232 220 218 203 182 161 146 154 143 116 17 14 0 4 0 0 0 0 0 0 0 0 0 0 0 0 0 0 0 0 0 0
1356 1290 1342 1563 1318 1503 564 811 649 640 898 1323 1757 2041 2224 2332 2556 2591 2536 2466 2362 2301 2225 2121 2036 1985 1966 1906 1844 1768 1741 1730 1637 1500 1408 1304 1228 1224 1142 827 980 1078 938 772 699 691 819 799 614 362 300 289 288 320 257 224 259 233 177 146 129 159 121 58 8 23 0 0 0 0 0 0 0 0 0 0 0 0 0 0 0 0 0 0 0
1753 1870 1538 1111 908 810 879 1039 1308 839 1338 1356 1762 1942 2107 2202 2477 2501 2403 2336 2214 2107 2081 2030 1956 1878 1845 1842 1802 1739 1691 1673 1566 1438 1340 1251 1248 1301 1169 853 991 1082 955 777 749 811 897 809 734 407 320 306 320 374 299 252 222 204 111 30 0 120 126 135 39 53 2 0 0 0 0 0 0 0 0 0 0 0 0 0 0 0 0 0 0
1944 1653 1513 1396 1009 752 798 774 932 959 1255 1263 1202 1615 1934 2217 2351 2396 2290 2220 2105 2036 1985 1910 1832 1775 1729 1728 1734 1703 1645 1598 1514 1366 1257 1298 1294 1302 1147 1045 1000 1070 962 893 852 858 888 810 740 486 302 315 345 323 311 312 323 289 177 32 0 0 0 0 33 47 0 0 0 0 0 0 0 0 0 0 0 0 0 0 0 0 0 0 0
1950 1786 1403 1290 968 769 627 715 692 774 1011 1044 1188 1217 1436 2219 2292 2270 2179 2061 1949 1862 1858 1808 1737 1703 1683 1619 1592 1567 1563 1567 1502 1342 1180 1336 1360 1307 1210 1155 1105 1050 931 777 809 888 856 730 669 524 266 314 340 348 343 334 316 228 81 0 0 0 0 0 23 34 0 0 0 0 0 0 0 0 0 0 0 0 0 0 0 0 0 0 0
1796 1563 1458 1171 638 591 631 573 523 586 834 999 977 952 1299 1981 2230 2114 1973 1867 1755 1694 1701 1640 1602 1582 1582 1510 1453 1438 1472 1524 1455 1256 1189 1410 1474 1371 1280 1253 1224 1142 984 886 1010 949 924 857 674 564 287 294 335 373 377 309 308 284 96 0 0 0 0 0 52 15 0 0 0 0 0 0 0 0 0 0 0 0 0 0 0 0 0 0 0
1321 1166 1322 1306 1246 897 629 628 596 366 468 849 914 1021 1467 1845 2020 1945 1826 1702 1634 1581 1550 1512 1484 1462 1449 1402 1355 1356 1392 1425 1355 1224 1180 1480 1544 1423 1317 1287 1250 1097 999 922 978 1025 1038 964 684 599 316 313 364 394 352 319 267 154 0 0 1 0 13 0 1 29 0 0 0 0 0 0 0 0 0 0 0 0 0 0 0 0 0 0 0
1138 1165 1195 1176 1244 1144 670 527 461 298 793 1040 931 1105 1436 1782 1823 1750 1680 1592 1509 1482 1445 1380 1352 1334 1338 1294 1247 1255 1322 1342 1245 1035 1101 1493 1547 1447 1366 1322 1226 1079 1022 1000 1001 1017 981 858 679 510 318 286 324 321 231 168 141 0 23 0 1 0 0 0 37 10 0 0 0 0 0 0 0 0 0 0 0 0 0 0 0 0 0 0 0
1226 1145 1175 1278 1182 986 520 371 407 448 560 787 1163 1574 1658 1733 1716 1656 1581 1570 1514 1435 1352 1294 1268 1259 1290 1285 1255 1244 1308 1331 1220 930 1049 1492 1510 1429 1317 1334 1137 1092 1025 972 1025 997 687 578 514 494 308 256 234 146 118 126 130 82 0 66 3 0 0 2 17 0 0 0 0 0 0 0 0 0 0 0 0 0 0 0 0 0 0 0 0
1246 958 1108 1236 1010 672 482 431 340 349 659 783 1032 1506 1444 1559 1601 1570 1552 1550 1495 1425 1352 1246 1212 1216 1267 1285 1185 1136 1182 1240 1083 862 1050 1393 1485 1398 1352 1199 1105 1049 962 977 1067 1004 805 626 506 448 327 231 156 106 77 99 115 106 8 1 0 0 0 16 0 0 0 0 0 0 0 0 0 0 0 0 0 0 0 0 0 0 0 0 0
1008 829 1050 1039 1055 874 673 473 488 363 578 902 812 1112 1366 1597 1596 1546 1482 1448 1373 1306 1246 1194 1180 1204 1238 1212 1145 1059 1073 1088 990 895 1050 1294 1463 1462 1352 1211 1093 991 983 1016 934 843 956 748 602 487 444 260 114 90 96 107 18 0 0 0 0 0 7 1 0 0 0 0 0 0 0 0 0 0 0 0 0 0 0 0 0 0 0 0 0
1001 1125 924 860 961 962 919 825 581 422 204 824 872 1180 1034 1090 1293 1365 1383 1343 1299 1215 1111 1111 1159 1193 1201 1186 1156 1138 1096 1077 995 912 1035 1278 1394 1411 1337 1226 1068 849 798 826 870 927 886 746 685 529 391 346 140 148 130 0 0 0 0 0 0 0 0 0 0 0 0 0 0 0 0 0 0 0 0 0 0 0 0 0 0 0 0 0 0
1120 1097 960 846 843 762 713 631 493 387 520 578 705 732 691 841 881 1200 1168 1259 1260 1193 1143 1167 1208 1199 1230 1236 1212 1134 1086 1152 1118 1026 1145 1232 1321 1344 1298 1230 1068 876 702 719 774 803 839 840 502 205 20 10 169 168 21 0 0 1 0 0 0 1 0 0 0 0 0 0 0 0 0 0 0 0 0 0 0 0 0 0 0 0 0 0 0
1103 805 587 585 672 734 748 716 601 460 430 543 564 574 744 878 909 884 1032 1134 1168 1180 1138 1148 1148 1132 1182 1234 1222 1144 1120 1160 1138 1144 1059 786 808 939 991 1012 950 863 749 652 633 658 568 517 308 25 5 0 6 42 0 0 0 0 0 0 0 0 0 0 0 0 0 0 0 0 0 0 0 0 0 0 0 1 0 0 0 0 0 0 0
1089 990 746 666 661 756 686 654 599 613 602 564 582 627 625 689 676 967 1183 1046 1039 1044 1111 1120 1068 1144 1200 1071 1038 1114 1085 1105 1009 851 840 910 779 573 556 645 716 770 816 816 817 737 555 304 175 87 1 0 0 146 73 0 0 0 0 0 0 0 0 0 0 0 0 0 0 0 0 0 0 0 0 0 0 0 0 0 0 0 0 0 0
1030 1024 939 764 531 345 322 364 460 490 454 385 311 316 455 635 816 781 856 930 1001 1005 861 1087 1098 1214 1213 1185 1145 1144 1082 1064 1069 981 905 972 868 772 654 532 482 540 583 674 750 864 602 422 80 5 26 0 0 64 14 0 0 0 0 0 0 0 0 0 0 0 0 0 0 0 0 0 0 0 0 0 0 0 0 0 0 0 0 0 0
764 766 748 782 759 761 494 363 366 270 203 370 408 433 688 716 806 796 901 944 998 1088 1106 1134 1219 1334 1334 1272 1231 1203 1183 1156 1057 762 716 892 1000 972 821 648 454 433 470 527 598 732 522 406 207 1 43 0 0 0 0 0 0 0 0 0 0 0 0 0 0 0 0 0 0 0 0 0 0 0 0 0 0 0 0 0 0 0 0 0 0
422 382 77 356 777 821 739 620 511 402 312 242 189 509 510 331 659 845 796 953 980 971 1059 1242 1310 1376 1242 1078 1192 1168 1141 1119 978 804 594 768 934 909 804 666 380 276 282 333 486 660 764 441 52 21 15 0 0 0 0 0 0 0 8 12 0 0 0 6 1 0 0 0 0 0 0 0 0 0 0 0 0 0 0 0 0 0 0 0 0
211 263 332 422 434 604 674 645 596 427 103 138 155 50 257 522 531 615 583 568 648 637 671 1122 1355 1485 1384 1289 1259 1308 1329 1321 1260 1142 792 404 389 520 506 419 295 226 163 223 311 427 526 236 19 41 12 2 0 15 70 72 0 11 36 5 0 0 0 0 0 0 0 0 0 0 0 0 0 0 0 0 0 0 0 0 0 0 0 0 0
402 418 508 579 583 568 704 820 718 617 302 330 172 144 71 277 218 374 521 434 393 464 547 932 1298 1398 1364 1284 1225 1290 1326 1063 1019 1034 881 505 340 262 319 343 340 306 240 246 297 293 333 273 86 0 0 0 0 8 6 7 33 42 2 0 0 2 60 0 1 0 0 0 0 0 0 0 0 0 0 0 0 0 0 0 0 0 0 0 0
322 322 269 286 378 500 606 627 601 576 504 491 364 433 336 164 74 108 363 560 668 676 790 987 1337 1342 823 648 837 941 983 957 911 930 817 553 397 310 278 310 346 418 422 413 369 336 346 264 147 0 0 0 0 0 2 7 8 1 0 2 16 46 35 1 3 0 0 0 0 0 0 0 0 0 0 0 0 0 0 0 0 0 0 0 0
64 15 198 237 240 269 339 425 524 527 460 448 525 558 578 606 342 164 246 287 255 361 701 790 899 933 355 136 286 926 1060 773 625 597 622 609 555 476 415 393 346 348 393 445 401 401 37 14 7 9 5 0 3 0 10 2 0 0 0 63 26 15 0 0 0 0 0 0 0 0 0 0 0 0 0 0 0 0 0 0 0 0 0 0 0
32 14 6 0 0 0 121 158 168 301 376 378 339 370 578 666 655 728 499 121 174 206 192 407 745 824 127 99 379 617 746 791 656 490 482 570 553 503 549 610 610 497 378 356 339 363 1 0 27 1 3 0 0 0 1 11 11 0 0 0 1 0 0 0 0 0 0 0 0 0 0 0 0 0 0 0 0 0 0 0 0 0 0 0 0
11 14 0 0 0 0 0 0 1 17 14 186 304 386 431 534 617 680 723 756 863 856 666 622 630 811 692 665 666 645 570 506 509 521 498 497 547 561 565 614 580 446 422 426 305 304 142 220 111 7 10 2 0 0 4 23 8 23 9 0 0 0 0 0 0 0 0 0 0 0 0 0 0 0 0 0 0 0 0 0 0 0 0 0 0
10 8 6 1 3 0 0 1 0 0 94 126 135 191 149 44 282 463 487 570 662 612 717 802 834 930 911 815 647 521 482 428 367 370 420 494 531 570 548 530 523 413 259 224 180 151 151 123 88 1 6 6 0 0 12 17 9 10 0 0 0 0 0 0 0 0 0 0 0 0 0 0 0 0 0 0 0 0 0 0 0 0 0 0 0
7 3 3 1 2 0 4 0 0 0 0 50 150 163 144 104 88 29 209 409 382 414 495 494 510 572 619 634 658 674 553 408 336 323 330 369 429 447 484 502 463 454 370 133 34 6 0 0 0 18 8 1 0 0 2 4 10 2 0 0 0 0 0 0 0 0 0 0 0 0 0 0 0 0 0 0 0 0 0 0 0 0 0 0 0
2 1 1 0 0 0 0 0 3 6 2 1 3 36 103 136 154 131 112 116 10 98 201 331 509 518 540 571 551 476 436 486 469 420 430 413 363 385 360 383 411 376 154 10 7 33 18 4 0 2 20 22 21 0 2 12 12 5 6 4 0 0 0 0 0 0 0 0 0 0 0 0 0 0 0 0 0 0 0 0 0 0 0 0 0
14 11 4 3 0 0 0 0 2 6 7 8 8 4 2 18 62 149 187 182 161 149 107 168 287 369 474 514 579 653 581 597 616 514 421 361 373 398 396 367 321 6 65 54 8 10 6 6 0 3 0 2 0 0 5 1 0 0 0 0 0 0 0 0 0 0 0 0 0 0 0 0 0 0 0 0 0 0 0 0 0 0 0 0 0
2 14 10 2 0 0 2 1 0 0 2 2 4 3 1 0 0 0 15 72 176 262 250 149 178 229 265 289 330 474 482 519 571 552 464 400 332 306 273 186 29 35 9 13 18 8 0 0 0 0 1 1 0 0 3 3 0 0 0 0 0 0 0 0 0 0 0 0 0 0 0 0 0 0 0 0 0 0 0 0 0 0 0 0 0
4 3 1 2 1 1 2 2 4 0 0 0 0 1 1 1 1 1 2 1 11 58 149 252 244 212 222 276 325 325 373 379 396 405 415 318 96 3 7 6 4 1 0 1 13 20 16 7 2 2 3 3 11 13 2 0 0 0 0 0 0 0 0 0 0 0 0 0 0 0 0 0 0 0 0 0 0 0 0 0 0 0 0 0 1
7 8 6 5 11 17 7 2 1 0 2 2 1 1 4 6 5 3 1 1 2 2 3 1 2 40 70 67 10 9 0 5 74 11 2 7 29 34 25 10 2 1 0 1 2 7 6 3 1 1 1 5 8 4 0 0 1 0 0 0 0 0 0 0 0 0 0 0 0 0 0 0 0 0 0 0 0 0 0 0 0 0 0 2 5
9 5 10 4 0 0 2 3 18 8 1 2 2 4 5 4 5 6 6 4 3 2 2 3 1 4 7 22 47 55 40 18 16 24 36 6 0 0 0 2 0 0 0 0 0 3 7 6 1 0 1 0 0 0 0 0 0 0 0 0 0 0 0 1 5 9 6 4 2 1 2 2 0 0 0 0 0 0 0 0 0 0 2 4 3
1 1 10 5 10 1 4 5 3 2 7 2 13 15 10 9 7 6 5 6 5 4 5 5 4 1 0 2 11 27 32 16 0 3 6 2 3 2 0 1 0 0 2 4 5 9 9 1 0 0 0 0 0 0 0 1 1 0 1 0 0 1 4 6 10 13 9 3 0 0 0 0 0 0 0 0 0 0 0 0 2 1 1 1 1
Wind_Speed
44 42 41 41 43 41 38 35 33 33 34 35 36 37 37 38 37 37 39 38 37 34 31 29 28 28 30 31 34 36 37 37 36 33 30 32 34 35 33 32 31 30 30 29 28 27 27 27 25 25 25 24 23 25 nan nan nan nan nan nan nan nan nan nan nan nan nan nan nan nan nan nan nan nan nan nan nan nan nan nan nan nan nan nan nan
47 47 45 44 43 43 39 37 34 34 35 37 37 38 38 39 40 40 39 39 37 34 32 31 29 29 31 32 33 36 36 37 38 35 32 32 35 35 33 33 31 30 31 29 28 29 26 23 24 25 26 26 nan nan nan nan nan nan nan nan nan nan nan nan nan nan nan nan nan nan nan nan nan nan nan nan nan nan nan nan nan nan nan nan nan
52 50 49 47 45 44 42 39 36 34 35 36 36 37 38 39 42 41 39 40 38 35 34 32 29 30 32 33 34 35 37 37 38 37 34 33 36 36 34 33 32 31 33 31 29 29 28 26 22 21 24 nan nan nan nan nan nan nan nan nan nan nan nan nan nan nan nan nan nan nan nan nan nan nan nan nan nan nan nan nan nan nan nan nan nan
59 58 56 51 49 45 41 39 38 37 35 35 35 36 37 38 42 41 40 42 39 36 35 34 30 31 33 34 35 36 37 37 39 38 36 35 36 36 34 33 32 32 32 32 30 29 30 nan nan nan nan nan nan nan nan nan nan nan nan nan nan nan nan nan nan nan nan nan nan nan nan nan nan nan nan nan nan nan nan nan nan nan nan nan nan
58 53 51 51 48 45 41 40 40 38 37 36 34 36 37 37 40 40 40 41 39 37 36 34 32 32 33 35 35 36 38 39 40 39 36 36 37 36 34 33 32 32 33 32 30 30 30 nan nan nan nan nan nan nan nan nan nan nan nan nan nan nan nan nan nan nan nan nan nan nan nan nan nan nan nan nan nan nan nan nan nan nan nan nan nan
56 52 48 44 40 42 40 41 42 40 38 37 36 36 36 37 39 40 40 40 41 38 36 35 35 33 33 36 35 36 38 40 41 39 37 37 37 36 34 33 32 33 33 33 31 31 nan nan nan nan nan nan nan nan nan nan nan nan nan nan nan nan nan nan nan nan nan nan nan nan nan nan nan nan nan nan nan nan nan nan nan nan nan nan nan
53 50 48 44 42 41 40 40 44 44 41 39 39 38 36 36 38 39 40 40 41 40 36 36 37 36 35 36 35 35 38 41 40 39 38 38 38 36 34 33 33 32 32 33 31 32 33 nan nan nan nan nan nan nan nan nan nan nan nan nan nan nan nan nan nan nan nan nan nan nan nan nan nan nan nan nan nan nan nan nan nan nan nan nan nan
52 49 50 50 48 46 45 43 44 45 43 41 42 40 38 38 38 40 41 41 41 40 38 37 39 40 38 36 35 36 38 40 40 39 37 38 37 35 35 35 34 33 33 33 32 33 34 nan nan nan nan nan nan nan nan nan nan nan nan nan nan nan nan nan nan nan nan nan nan nan nan nan nan nan nan nan nan nan nan nan nan nan nan nan nan
55 52 53 54 54 53 50 47 46 45 44 44 44 43 41 41 41 43 43 42 42 41 40 40 40 40 38 36 36 37 38 39 40 39 38 38 37 35 36 36 35 34 33 33 34 35 34 nan nan nan nan nan nan nan nan nan nan nan nan nan nan nan nan nan nan nan nan nan nan nan nan nan nan nan nan nan nan nan nan nan nan nan nan nan nan
56 54 54 54 55 53 50 48 47 46 45 44 46 47 45 44 44 44 44 42 43 43 42 43 42 40 38 37 37 38 38 38 41 45 40 36 36 35 35 35 35 34 34 34 35 35 34 nan nan nan nan nan nan nan nan nan nan nan nan nan nan nan nan nan nan nan nan nan nan nan nan nan nan nan nan nan nan nan nan nan nan nan nan nan nan
54 54 53 54 54 53 51 49 48 49 48 46 47 48 48 48 47 45 44 45 44 44 44 45 43 40 38 37 38 38 39 40 46 47 42 40 38 36 35 34 34 34 35 36 37 36 35 36 nan nan nan nan nan nan nan nan nan nan nan nan nan nan nan nan nan nan nan nan nan nan nan nan nan nan nan nan nan nan nan nan nan nan nan nan nan
54 55 54 56 56 57 55 50 49 50 49 47 47 48 50 51 49 46 46 45 46 47 47 46 43 40 38 37 37 38 38 42 50 47 43 42 42 37 35 34 34 35 34 36 37 36 36 37 37 38 38 38 nan nan nan nan nan nan nan nan nan nan nan nan nan nan nan nan nan nan nan nan nan nan nan nan nan nan nan nan nan nan nan nan nan
54 56 58 57 59 60 55 51 49 50 51 49 49 49 50 51 49 48 46 45 47 49 47 47 44 39 38 37 37 39 39 45 51 48 43 43 45 42 35 34 35 35 34 37 39 37 37 38 39 38 39 45 nan nan nan nan nan nan nan nan nan nan nan nan nan nan nan nan nan nan nan nan nan nan nan nan nan nan nan nan nan nan nan nan nan
55 57 58 57 59 58 55 52 50 50 50 52 51 49 49 50 49 48 47 47 49 50 49 46 43 39 38 38 38 41 41 47 51 49 45 46 48 45 36 34 34 35 35 37 38 38 39 39 40 39 40 40 38 nan nan nan nan nan nan nan nan nan nan nan nan nan nan nan nan nan nan nan nan nan nan nan nan nan nan nan nan nan nan nan nan
57 57 58 59 60 58 55 52 52 52 51 51 52 49 49 50 50 50 49 48 49 50 48 45 42 40 40 40 41 42 43 50 52 50 46 48 50 47 38 33 33 34 36 37 38 39 40 39 40 40 41 41 nan nan nan nan nan nan nan nan nan nan nan nan nan nan nan nan nan nan nan nan nan nan nan nan nan nan nan nan nan nan nan nan nan
49 55 56 58 59 57 54 53 55 53 49 50 52 50 49 49 49 50 50 48 48 50 49 47 45 43 42 43 44 43 48 53 53 51 47 47 51 44 38 34 34 36 36 35 36 39 41 40 41 41 41 41 42 45 42 42 nan nan nan nan nan nan nan 40 nan nan nan nan nan nan nan nan nan nan nan nan nan nan nan nan nan nan nan nan nan
48 51 56 55 56 57 57 59 59 56 55 52 50 50 49 49 48 50 49 48 47 48 49 48 46 45 45 46 46 44 50 51 54 51 47 48 48 43 40 35 34 37 37 35 36 39 40 40 41 41 42 41 45 48 48 48 42 nan nan nan nan nan nan nan nan nan nan nan nan nan nan nan nan nan nan nan nan nan nan nan nan nan nan nan nan
47 50 55 56 53 52 54 58 61 61 56 52 49 51 51 51 48 48 47 48 46 45 48 49 48 48 48 47 48 46 52 53 53 50 47 47 48 44 40 36 35 37 37 35 36 38 39 43 43 43 42 42 48 50 51 48 43 43 44 45 nan 45 44 nan nan nan nan nan nan nan nan nan nan nan nan nan nan nan nan nan nan nan nan nan nan
45 47 52 56 54 51 54 60 62 63 58 51 49 51 50 48 48 47 45 46 46 46 49 51 51 50 49 48 50 51 56 52 51 49 46 47 48 43 41 37 36 36 35 36 37 38 38 39 44 44 43 45 51 51 51 47 43 43 44 46 47 44 41 nan nan nan nan nan nan nan nan nan nan nan nan nan nan nan nan nan nan nan nan nan nan
43 46 49 59 71 68 62 58 58 57 53 50 47 49 52 49 47 47 44 45 47 48 50 50 51 50 50 50 51 52 55 54 48 49 45 46 48 45 40 37 36 37 37 37 37 37 38 37 40 46 51 52 51 52 50 49 45 44 44 45 45 42 42 nan nan nan nan nan nan nan nan nan nan nan nan nan nan nan nan nan nan nan nan nan nan
44 47 54 55 57 55 54 57 59 53 51 49 49 51 54 51 49 48 45 44 46 47 48 48 49 50 50 50 51 52 53 53 48 47 44 45 46 45 39 37 37 38 37 38 37 38 38 37 36 45 52 51 51 51 51 47 47 45 44 nan nan 43 46 49 nan nan nan nan nan nan nan nan nan nan nan nan nan nan nan nan nan nan nan nan nan
48 50 49 49 48 50 47 44 55 60 64 69 67 57 54 52 51 49 46 44 44 45 46 47 48 49 50 49 49 51 53 54 50 44 43 42 44 43 39 37 39 40 39 38 39 38 38 38 38 46 53 52 51 52 51 48 49 44 42 nan nan nan nan nan nan nan nan nan nan nan nan nan nan nan nan nan nan nan nan nan nan nan nan nan nan
46 51 57 56 52 48 47 50 53 53 52 57 56 53 53 54 52 49 46 43 44 44 45 46 47 48 48 48 48 51 53 50 51 44 40 41 41 39 40 41 45 43 41 41 41 41 40 41 43 51 54 53 51 52 51 50 46 41 nan nan nan nan nan nan nan nan nan nan nan nan nan nan nan nan nan nan nan nan nan nan nan nan nan nan nan
45 50 51 50 46 48 47 43 44 44 44 49 50 48 48 51 49 46 45 45 44 44 45 46 47 47 46 47 47 48 48 49 47 45 40 39 38 38 40 45 46 43 42 42 42 43 44 44 47 55 55 53 52 51 51 50 47 47 nan nan nan nan nan nan nan nan nan nan nan nan nan nan nan nan nan nan nan nan nan nan nan nan nan nan nan
45 46 49 49 49 51 48 47 44 40 43 51 55 52 48 48 47 46 47 46 45 46 46 45 45 44 45 45 45 45 47 48 51 40 42 40 38 38 38 44 43 46 43 42 43 43 48 53 55 56 57 55 53 51 50 51 55 51 nan nan nan nan nan nan nan nan nan nan nan nan nan nan nan nan nan nan nan nan nan nan nan nan nan nan nan
45 45 46 50 51 50 51 54 54 52 47 55 55 52 50 48 49 49 48 47 47 47 46 46 45 44 43 44 43 44 46 48 48 42 37 39 39 38 36 40 42 44 45 44 48 53 56 56 56 57 57 54 50 48 49 50 52 nan nan nan nan nan nan nan nan nan nan nan nan nan nan nan nan nan nan nan nan nan nan nan nan nan nan nan nan
46 46 48 50 51 53 57 60 58 57 55 58 54 53 52 52 53 52 49 47 48 47 47 46 45 42 41 41 42 45 45 47 44 41 42 42 39 40 39 39 42 47 47 46 49 51 56 56 54 55 54 54 53 53 54 54 50 nan nan nan nan nan nan nan nan nan nan nan nan nan nan nan nan nan nan nan nan nan nan nan nan nan nan nan nan
44 47 49 50 51 53 54 52 51 52 51 52 48 48 49 51 51 50 47 46 47 47 46 44 42 39 39 40 43 44 43 42 40 39 40 43 41 44 43 42 40 44 48 47 50 55 55 56 60 57 55 52 51 51 nan nan 45 45 nan nan nan nan nan nan nan nan nan nan nan nan nan nan nan nan nan nan nan nan nan nan nan nan nan nan nan
42 45 49 48 49 53 54 55 52 45 41 43 46 46 46 47 48 46 45 46 47 46 43 42 41 40 40 41 43 42 40 35 32 38 44 46 46 45 43 42 43 45 51 57 57 55 57 58 58 58 53 50 48 nan nan 46 nan nan nan nan nan nan nan nan nan nan nan nan nan nan nan nan nan nan nan nan nan nan nan nan nan nan nan nan nan
36 38 43 45 46 51 55 57 56 49 40 42 45 46 53 53 49 48 49 48 50 48 47 43 42 42 42 42 41 40 36 38 47 47 47 48 44 45 45 46 47 51 57 62 60 59 58 57 53 51 50 48 48 48 48 nan nan nan nan nan nan nan nan nan nan nan nan nan nan nan nan nan nan nan nan nan nan nan nan nan nan nan nan nan nan
34 35 39 42 45 48 51 55 59 56 51 51 50 42 45 53 63 54 49 56 54 51 48 48 46 44 45 48 46 49 48 47 47 46 47 46 46 46 44 44 50 57 63 64 60 59 56 51 46 45 nan nan 51 51 nan nan nan nan nan nan nan nan nan nan nan nan nan nan nan nan nan nan nan nan nan nan nan nan nan nan nan nan nan nan nan
32 33 37 42 47 46 47 48 54 56 54 48 42 38 39 43 50 61 60 50 53 51 49 46 45 47 47 49 46 43 44 45 45 45 44 44 45 45 44 47 51 59 61 67 61 56 52 48 46 nan nan nan nan nan nan nan nan nan nan nan nan nan nan nan nan nan nan nan nan nan nan nan nan nan nan nan nan nan nan nan nan nan nan nan nan
30 34 38 42 44 42 43 47 52 51 45 39 35 36 37 40 45 47 56 60 51 46 47 46 44 45 45 47 46 43 43 44 46 44 44 45 46 44 46 49 53 58 63 60 57 56 53 50 47 nan nan nan nan 45 nan nan nan nan nan nan nan nan nan nan nan nan nan nan nan nan nan nan nan nan nan nan nan nan nan nan nan nan nan nan nan
39 41 40 40 41 42 44 48 51 50 46 40 37 34 34 37 38 42 45 48 54 56 56 47 43 44 48 47 44 45 46 45 44 44 45 47 47 47 49 50 51 55 58 56 55 53 51 49 nan nan nan nan nan nan nan nan nan nan nan nan nan nan nan nan nan nan nan nan nan nan nan nan nan nan nan nan nan nan nan nan nan nan nan nan nan
35 37 43 42 40 44 47 49 50 47 43 38 37 38 37 37 42 41 37 40 42 43 44 49 50 46 50 47 46 47 46 44 44 46 48 49 50 53 56 54 50 46 48 50 50 50 49 48 48 nan nan nan nan nan nan nan nan nan nan nan nan nan nan nan nan nan nan nan nan nan nan nan nan nan nan nan nan nan nan nan nan nan nan nan nan
38 40 nan 43 42 43 45 48 50 50 49 46 42 40 41 40 39 42 46 46 41 41 45 45 46 46 47 47 47 47 46 46 47 48 49 52 54 58 50 46 47 48 49 50 50 49 47 45 nan nan nan nan nan nan nan nan nan nan nan nan nan nan nan nan nan nan nan nan nan nan nan nan nan nan nan nan nan nan nan nan nan nan nan nan nan
41 40 38 37 39 41 44 48 51 50 53 52 42 nan 39 43 42 42 46 48 50 50 51 51 54 54 54 51 48 49 49 49 50 50 51 52 55 50 45 46 45 48 47 48 49 50 48 45 nan nan nan nan nan nan nan nan nan nan nan nan nan nan nan nan nan nan nan nan nan nan nan nan nan nan nan nan nan nan nan nan nan nan nan nan nan
40 41 37 32 32 39 46 48 46 46 54 55 46 34 nan 43 47 48 48 48 47 46 45 44 45 45 47 52 52 52 52 54 57 54 50 50 48 44 44 45 47 47 48 48 49 48 46 45 nan nan nan nan nan nan nan nan nan nan nan nan nan nan nan nan nan nan nan nan nan nan nan nan nan nan nan nan nan nan nan nan nan nan nan nan nan
38 43 45 37 32 34 40 44 43 43 49 55 48 33 25 30 nan 44 46 47 46 44 43 42 42 46 50 52 52 51 54 51 49 48 46 44 44 44 46 47 46 46 48 49 49 46 43 43 39 nan nan nan nan nan nan nan nan nan nan nan nan nan nan nan nan nan nan nan nan nan nan nan nan nan nan nan nan nan nan nan nan nan nan nan nan
nan nan 40 40 35 34 37 43 46 47 47 47 42 34 29 29 32 34 36 40 43 43 41 42 44 48 51 50 49 46 47 47 47 47 46 45 44 45 48 49 49 49 49 49 48 46 nan nan nan nan nan nan nan nan nan nan nan nan nan nan nan nan nan nan nan nan nan nan nan nan nan nan nan nan nan nan nan nan nan nan nan nan nan nan nan
nan nan nan nan nan nan 40 44 49 52 51 49 45 42 40 39 38 37 36 35 35 36 36 38 41 46 48 nan 45 44 47 46 47 48 47 47 48 49 50 52 52 52 50 48 47 46 nan nan nan nan nan nan nan nan nan nan nan nan nan nan nan nan nan nan nan nan nan nan nan nan nan nan nan nan nan nan nan nan nan nan nan nan nan nan nan
nan nan nan nan nan nan nan nan nan nan nan 54 54 51 48 46 45 44 42 38 37 37 39 40 42 47 50 52 47 45 49 50 52 53 52 50 49 49 51 53 54 54 52 48 47 47 47 48 50 nan nan nan nan nan nan nan nan nan nan nan nan nan nan nan nan nan nan nan nan nan nan nan nan nan nan nan nan nan nan nan nan nan nan nan nan
nan nan nan nan nan nan nan nan nan nan nan 51 50 48 48 nan 49 50 48 46 44 45 47 49 51 52 52 52 51 49 54 56 56 57 55 53 51 51 52 55 56 55 52 48 46 47 49 50 nan nan nan nan nan nan nan nan nan nan nan nan nan nan nan nan nan nan nan nan nan nan nan nan nan nan nan nan nan nan nan nan nan nan nan nan nan
nan nan nan nan nan nan nan nan nan nan nan nan 48 47 46 47 nan nan 51 51 50 51 53 54 55 56 58 57 56 56 59 60 60 59 59 57 57 56 56 58 57 53 51 50 nan nan nan nan nan nan nan nan nan nan nan nan nan nan nan nan nan nan nan nan nan nan nan nan nan nan nan nan nan nan nan nan nan nan nan nan nan nan nan nan nan
nan nan nan nan nan nan nan nan nan nan nan nan nan nan 49 49 50 52 54 56 nan nan 57 57 58 59 60 59 58 59 62 63 64 63 62 61 59 57 56 57 54 51 50 nan nan nan nan nan nan nan nan nan nan nan nan nan nan nan nan nan nan nan nan nan nan nan nan nan nan nan nan nan nan nan nan nan nan nan nan nan nan nan nan nan nan
nan nan nan nan nan nan nan nan nan nan nan nan nan nan nan nan nan 51 52 54 55 56 57 58 58 59 59 60 61 62 64 64 64 63 62 59 56 54 53 53 51 nan nan nan nan nan nan nan nan nan nan nan nan nan nan nan nan nan nan nan nan nan nan nan nan nan nan nan nan nan nan nan nan nan nan nan nan nan nan nan nan nan nan nan nan
nan nan nan nan nan nan nan nan nan nan nan nan nan nan nan nan nan nan nan nan 51 51 52 52 53 53 53 55 56 58 59 59 58 58 56 53 50 50 49 50 nan nan nan nan nan nan nan nan nan nan nan nan nan nan nan nan nan nan nan nan nan nan nan nan nan nan nan nan nan nan nan nan nan nan nan nan nan nan nan nan nan nan nan nan nan
nan nan nan nan nan nan nan nan nan nan nan nan nan nan nan nan nan nan nan nan nan nan 48 48 48 47 47 48 50 50 49 50 50 50 50 49 nan nan nan nan nan nan nan nan nan nan nan nan nan nan nan nan nan nan nan nan nan nan nan nan nan nan nan nan nan nan nan nan nan nan nan nan nan nan nan nan nan nan nan nan nan nan nan nan nan
nan nan nan nan nan nan nan nan nan nan nan nan nan nan nan nan nan nan nan nan nan nan nan nan nan nan nan nan nan nan nan nan nan nan nan nan nan nan nan nan nan nan nan nan nan nan nan nan nan nan nan nan nan nan nan nan nan nan nan nan nan nan nan nan nan nan nan nan nan nan nan nan nan nan nan nan nan nan nan nan nan nan nan nan nan
nan nan nan nan nan nan nan nan nan nan nan nan nan nan nan nan nan nan nan nan nan nan nan nan nan nan nan nan nan nan nan nan nan nan nan nan nan nan nan nan nan nan nan nan nan nan nan nan nan nan nan nan nan nan nan nan nan nan nan nan nan nan nan nan nan nan nan nan nan nan nan nan nan nan nan nan nan nan nan nan nan nan nan nan nan
nan nan nan nan nan nan nan nan nan nan nan nan nan nan nan nan nan nan nan nan nan nan nan nan nan nan nan nan nan nan nan nan nan nan nan nan nan nan nan nan nan nan nan nan nan nan nan nan nan nan nan nan nan nan nan nan nan nan nan nan nan nan nan nan nan nan nan nan nan nan nan nan nan nan nan nan nan nan nan nan nan nan nan nan nan
Wind_Direction
251 250 250 252 253 252 251 250 253 254 257 258 262 263 260 266 272 274 271 269 270 274 278 282 287 293 298 302 305 309 314 318 322 321 313 305 307 308 309 310 312 310 307 306 306 304 306 312 312 312 311 313 312 308 nan nan nan nan nan nan nan nan nan nan nan nan nan nan nan nan nan nan nan nan nan nan nan nan nan nan nan nan nan nan nan
247 249 251 253 255 255 255 253 254 254 256 259 263 263 263 268 273 272 270 269 270 275 279 279 283 292 296 302 304 307 312 317 319 321 316 307 306 306 308 311 312 311 308 307 306 307 306 303 305 310 313 307 nan nan nan nan nan nan nan nan nan nan nan nan nan nan nan nan nan nan nan nan nan nan nan nan nan nan nan nan nan nan nan nan nan
238 243 249 249 251 252 254 255 257 258 260 260 265 267 267 269 271 271 267 265 266 270 275 277 283 291 295 298 304 306 311 315 316 320 319 311 306 306 308 310 310 311 310 310 310 307 305 300 297 294 293 nan nan nan nan nan nan nan nan nan nan nan nan nan nan nan nan nan nan nan nan nan nan nan nan nan nan nan nan nan nan nan nan nan nan
240 234 228 235 243 246 250 253 258 260 262 261 265 269 269 269 269 269 266 262 266 267 272 278 281 288 294 298 303 305 308 311 314 320 319 313 307 306 308 307 307 310 310 311 311 307 306 nan nan nan nan nan nan nan nan nan nan nan nan nan nan nan nan nan nan nan nan nan nan nan nan nan nan nan nan nan nan nan nan nan nan nan nan nan nan
241 242 238 224 229 241 246 251 257 260 262 262 265 268 269 269 266 268 264 262 264 265 269 274 281 286 291 298 302 305 308 309 312 317 317 313 308 306 307 306 304 307 309 309 309 306 303 nan nan nan nan nan nan nan nan nan nan nan nan nan nan nan nan nan nan nan nan nan nan nan nan nan nan nan nan nan nan nan nan nan nan nan nan nan nan
242 244 244 239 234 243 249 253 258 261 261 262 265 266 268 269 267 263 263 263 263 265 269 271 277 284 287 293 298 301 304 306 311 316 318 313 309 306 305 306 304 304 307 307 306 302 nan nan nan nan nan nan nan nan nan nan nan nan nan nan nan nan nan nan nan nan nan nan nan nan nan nan nan nan nan nan nan nan nan nan nan nan nan nan nan
246 247 244 239 237 246 254 259 261 261 260 258 259 262 265 265 266 264 262 264 264 264 269 273 275 280 284 287 294 298 302 304 309 315 317 314 311 308 306 305 302 301 302 305 306 303 301 nan nan nan nan nan nan nan nan nan nan nan nan nan nan nan nan nan nan nan nan nan nan nan nan nan nan nan nan nan nan nan nan nan nan nan nan nan nan
242 244 240 237 238 246 255 258 257 259 260 258 257 259 260 261 262 261 262 264 265 268 270 272 273 276 281 287 294 296 300 304 308 313 316 313 310 308 305 303 302 302 304 306 307 304 301 nan nan nan nan nan nan nan nan nan nan nan nan nan nan nan nan nan nan nan nan nan nan nan nan nan nan nan nan nan nan nan nan nan nan nan nan nan nan
239 239 238 239 243 247 251 253 250 252 256 257 256 256 257 259 259 260 263 264 262 265 267 269 271 275 280 285 290 293 296 301 305 310 313 313 309 308 305 305 305 305 305 304 302 301 300 nan nan nan nan nan nan nan nan nan nan nan nan nan nan nan nan nan nan nan nan nan nan nan nan nan nan nan nan nan nan nan nan nan nan nan nan nan nan
241 241 241 242 244 246 248 249 248 248 250 253 256 256 256 257 259 260 265 266 262 262 265 267 269 273 279 283 287 291 294 296 304 313 313 308 306 304 302 304 304 303 302 300 298 300 301 nan nan nan nan nan nan nan nan nan nan nan nan nan nan nan nan nan nan nan nan nan nan nan nan nan nan nan nan nan nan nan nan nan nan nan nan nan nan
243 243 243 244 245 246 245 246 248 248 248 249 253 255 256 255 257 261 263 264 262 261 263 267 268 271 278 281 287 290 292 296 306 311 315 312 305 302 302 302 303 302 301 300 298 300 300 299 nan nan nan nan nan nan nan nan nan nan nan nan nan nan nan nan nan nan nan nan nan nan nan nan nan nan nan nan nan nan nan nan nan nan nan nan nan
242 242 243 244 245 245 244 242 245 248 248 249 252 254 255 255 257 260 262 263 260 259 261 265 268 270 272 280 285 288 290 296 303 308 311 309 304 301 299 300 300 301 301 298 296 297 300 299 293 293 296 300 nan nan nan nan nan nan nan nan nan nan nan nan nan nan nan nan nan nan nan nan nan nan nan nan nan nan nan nan nan nan nan nan nan
239 241 242 244 245 246 245 242 240 243 249 251 251 253 255 254 255 258 262 262 259 259 262 264 267 270 272 280 285 286 287 292 300 305 307 305 305 302 299 301 302 303 302 299 298 298 298 298 294 295 294 302 nan nan nan nan nan nan nan nan nan nan nan nan nan nan nan nan nan nan nan nan nan nan nan nan nan nan nan nan nan nan nan nan nan
233 239 242 243 245 245 245 245 242 241 247 251 250 253 255 255 255 256 258 259 258 258 261 266 268 271 274 279 283 283 285 288 298 303 304 302 302 301 299 303 304 303 301 300 298 298 299 300 297 296 295 299 300 nan nan nan nan nan nan nan nan nan nan nan nan nan nan nan nan nan nan nan nan nan nan nan nan nan nan nan nan nan nan nan nan
224 235 242 243 245 245 246 248 246 244 242 245 249 252 255 254 255 254 256 260 261 261 263 267 269 270 273 277 280 282 282 290 295 299 301 300 301 299 298 301 302 301 300 300 300 299 298 300 299 300 297 299 nan nan nan nan nan nan nan nan nan nan nan nan nan nan nan nan nan nan nan nan nan nan nan nan nan nan nan nan nan nan nan nan nan
220 227 237 243 247 247 247 248 247 247 247 246 249 253 255 255 256 254 255 257 258 257 258 261 266 269 273 277 278 282 279 291 294 298 299 299 300 296 296 299 299 298 297 299 299 297 297 300 299 302 299 300 301 304 302 302 nan nan nan nan nan nan nan 302 nan nan nan nan nan nan nan nan nan nan nan nan nan nan nan nan nan nan nan nan nan
217 224 232 239 244 248 248 249 249 247 244 240 245 250 252 255 255 253 254 256 259 260 260 265 268 271 274 277 279 281 276 287 293 296 298 299 296 295 294 297 298 297 298 299 298 296 297 301 300 301 300 300 300 302 302 302 302 nan nan nan nan nan nan nan nan nan nan nan nan nan nan nan nan nan nan nan nan nan nan nan nan nan nan nan nan
218 223 229 234 240 243 247 248 248 248 245 240 241 246 250 252 256 256 256 257 259 262 262 264 267 270 274 277 277 277 274 283 292 295 297 301 299 296 294 297 298 297 299 300 296 294 297 307 302 301 301 300 301 302 302 301 303 306 307 308 nan 312 307 nan nan nan nan nan nan nan nan nan nan nan nan nan nan nan nan nan nan nan nan nan nan
219 221 226 231 236 242 243 245 247 247 246 242 239 245 249 252 254 255 255 255 256 258 260 262 265 267 271 273 276 275 273 281 291 294 298 301 299 295 295 297 298 300 299 298 294 293 296 301 304 301 301 300 304 303 304 302 302 306 307 308 311 310 306 nan nan nan nan nan nan nan nan nan nan nan nan nan nan nan nan nan nan nan nan nan nan
219 221 224 232 231 226 228 239 246 247 248 249 246 247 247 249 253 255 254 254 254 255 258 261 266 267 268 269 269 272 275 278 287 294 296 299 304 297 295 297 299 298 296 296 293 293 294 296 301 304 300 304 306 305 305 306 301 303 306 310 312 311 308 nan nan nan nan nan nan nan nan nan nan nan nan nan nan nan nan nan nan nan nan nan nan
219 219 227 230 234 233 231 229 235 241 247 247 245 241 243 246 251 252 254 253 254 254 258 259 262 264 265 266 268 269 275 281 283 292 295 301 306 303 297 298 295 293 294 294 294 294 295 298 298 296 300 305 305 306 306 305 301 302 305 nan nan 307 310 311 nan nan nan nan nan nan nan nan nan nan nan nan nan nan nan nan nan nan nan nan nan
218 217 221 231 234 235 233 237 246 242 235 230 227 229 235 241 244 250 251 253 257 257 258 257 259 261 262 264 266 268 271 284 279 289 298 303 307 307 298 295 293 291 293 293 294 294 296 299 295 298 302 303 306 305 304 304 302 301 307 nan nan nan nan nan nan nan nan nan nan nan nan nan nan nan nan nan nan nan nan nan nan nan nan nan nan
223 221 226 226 222 223 227 230 238 241 244 246 241 234 233 238 241 246 250 252 256 257 257 256 257 259 260 261 263 264 268 274 286 287 296 302 308 306 301 291 293 294 294 295 296 295 294 295 295 300 301 304 305 304 304 305 297 293 nan nan nan nan nan nan nan nan nan nan nan nan nan nan nan nan nan nan nan nan nan nan nan nan nan nan nan
226 220 218 229 235 231 225 225 234 236 237 241 244 244 240 240 244 248 250 252 254 256 254 255 256 258 260 261 262 263 267 268 277 292 293 301 303 304 296 296 297 293 293 292 293 293 293 292 295 299 299 301 301 301 302 300 292 293 nan nan nan nan nan nan nan nan nan nan nan nan nan nan nan nan nan nan nan nan nan nan nan nan nan nan nan
228 221 220 221 226 234 233 229 231 238 242 245 246 246 242 243 249 251 250 249 252 253 253 255 258 259 260 261 261 261 262 264 269 283 294 297 301 299 292 297 298 296 293 290 292 294 292 295 296 295 294 296 298 299 297 296 292 294 nan nan nan nan nan nan nan nan nan nan nan nan nan nan nan nan nan nan nan nan nan nan nan nan nan nan nan
229 227 221 220 221 224 228 227 227 229 229 243 248 247 247 249 251 251 248 248 250 252 253 255 256 257 258 259 260 259 260 261 258 266 276 288 290 289 287 296 295 294 292 293 298 295 295 296 293 290 289 290 289 286 285 286 289 nan nan nan nan nan nan nan nan nan nan nan nan nan nan nan nan nan nan nan nan nan nan nan nan nan nan nan nan
230 230 227 224 225 224 223 227 229 232 234 236 238 244 244 246 247 246 244 245 247 248 251 253 256 258 259 259 259 258 259 260 259 259 263 268 274 278 273 279 283 285 285 286 289 292 295 292 289 288 284 288 287 285 283 284 286 nan nan nan nan nan nan nan nan nan nan nan nan nan nan nan nan nan nan nan nan nan nan nan nan nan nan nan nan
230 231 229 228 230 230 228 226 229 234 237 242 240 239 241 241 242 243 244 244 247 249 251 255 259 261 260 258 258 258 260 262 262 264 269 270 274 268 268 274 280 283 285 287 291 291 292 288 284 278 276 275 274 275 nan nan 287 291 nan nan nan nan nan nan nan nan nan nan nan nan nan nan nan nan nan nan nan nan nan nan nan nan nan nan nan
231 232 233 231 230 231 232 230 230 234 235 236 234 232 232 236 238 239 240 240 243 246 249 253 256 257 257 257 259 260 261 264 265 265 271 273 273 272 271 277 280 283 286 290 288 286 286 289 285 281 278 279 279 nan nan 282 nan nan nan nan nan nan nan nan nan nan nan nan nan nan nan nan nan nan nan nan nan nan nan nan nan nan nan nan nan
230 232 236 235 232 232 232 234 233 232 236 239 236 229 219 214 224 233 234 237 244 246 245 244 247 249 251 250 253 258 258 251 256 264 268 272 277 282 279 282 284 282 286 291 288 288 290 291 288 283 280 281 285 284 283 nan nan nan nan nan nan nan nan nan nan nan nan nan nan nan nan nan nan nan nan nan nan nan nan nan nan nan nan nan nan
232 232 232 231 231 233 233 233 236 235 233 232 237 239 235 226 216 217 233 239 244 246 246 250 252 248 247 246 246 252 257 261 266 265 271 278 285 285 284 286 286 286 286 282 282 289 293 293 290 285 nan nan 284 285 nan nan nan nan nan nan nan nan nan nan nan nan nan nan nan nan nan nan nan nan nan nan nan nan nan nan nan nan nan nan nan
232 230 229 232 234 232 231 232 234 237 238 239 240 243 241 232 227 220 219 238 246 249 250 250 250 250 254 252 250 243 253 260 263 266 271 277 283 288 290 287 285 288 291 288 287 295 298 295 290 nan nan nan nan nan nan nan nan nan nan nan nan nan nan nan nan nan nan nan nan nan nan nan nan nan nan nan nan nan nan nan nan nan nan nan nan
232 227 227 229 232 233 234 232 232 234 238 240 240 243 240 230 228 224 220 221 232 249 253 249 249 252 253 252 257 251 250 257 266 270 275 278 281 285 287 283 285 288 286 286 292 295 297 293 289 nan nan nan nan 281 nan nan nan nan nan nan nan nan nan nan nan nan nan nan nan nan nan nan nan nan nan nan nan nan nan nan nan nan nan nan nan
225 225 224 226 227 228 231 232 232 231 233 236 236 237 239 231 222 224 227 231 227 222 224 239 251 252 247 252 254 253 255 262 267 272 274 277 280 283 283 278 284 291 291 291 293 296 297 295 nan nan nan nan nan nan nan nan nan nan nan nan nan nan nan nan nan nan nan nan nan nan nan nan nan nan nan nan nan nan nan nan nan nan nan nan nan
222 230 225 220 223 228 229 230 233 234 232 233 239 237 232 226 224 224 230 237 237 236 238 231 227 237 240 241 249 253 258 263 268 271 273 275 277 278 276 276 280 283 280 280 287 293 296 294 291 nan nan nan nan nan nan nan nan nan nan nan nan nan nan nan nan nan nan nan nan nan nan nan nan nan nan nan nan nan nan nan nan nan nan nan nan
223 225 nan 220 220 225 227 229 232 233 231 230 234 235 229 225 226 225 219 217 227 236 233 230 230 227 237 244 252 256 259 263 266 269 271 275 278 282 282 284 286 289 289 288 291 292 290 290 nan nan nan nan nan nan nan nan nan nan nan nan nan nan nan nan nan nan nan nan nan nan nan nan nan nan nan nan nan nan nan nan nan nan nan nan nan
226 222 222 224 220 219 222 227 230 228 227 227 232 nan 225 220 224 225 224 223 220 217 221 227 226 225 227 230 242 252 258 260 262 264 268 275 285 285 284 287 289 288 289 290 292 290 290 288 nan nan nan nan nan nan nan nan nan nan nan nan nan nan nan nan nan nan nan nan nan nan nan nan nan nan nan nan nan nan nan nan nan nan nan nan nan
239 227 222 227 230 221 221 224 225 225 226 231 238 240 nan 217 221 224 225 224 226 229 233 229 228 233 238 236 236 239 244 249 253 256 264 273 277 278 279 283 287 291 292 292 292 289 286 286 nan nan nan nan nan nan nan nan nan nan nan nan nan nan nan nan nan nan nan nan nan nan nan nan nan nan nan nan nan nan nan nan nan nan nan nan nan
234 237 228 223 237 230 222 221 221 222 226 232 239 244 239 228 nan 223 220 219 224 229 231 231 229 232 238 241 238 242 247 249 254 259 263 268 271 273 275 280 284 288 290 291 287 282 283 283 283 nan nan nan nan nan nan nan nan nan nan nan nan nan nan nan nan nan nan nan nan nan nan nan nan nan nan nan nan nan nan nan nan nan nan nan nan
nan nan 238 235 238 235 226 221 219 219 221 225 230 238 241 236 231 232 229 222 217 217 221 226 230 234 240 242 245 250 253 256 255 260 265 269 271 274 276 281 284 287 289 288 284 279 nan nan nan nan nan nan nan nan nan nan nan nan nan nan nan nan nan nan nan nan nan nan nan nan nan nan nan nan nan nan nan nan nan nan nan nan nan nan nan
nan nan nan nan nan nan 230 225 225 222 224 228 234 241 243 237 232 229 230 229 226 227 228 228 232 238 245 nan 258 259 257 259 260 261 266 272 274 277 280 282 285 287 287 286 283 280 nan nan nan nan nan nan nan nan nan nan nan nan nan nan nan nan nan nan nan nan nan nan nan nan nan nan nan nan nan nan nan nan nan nan nan nan nan nan nan
nan nan nan nan nan nan nan nan nan nan nan 240 243 246 247 243 238 237 240 241 239 239 239 238 238 241 252 263 265 263 258 259 262 264 265 267 271 275 278 280 283 284 284 283 280 280 281 283 281 nan nan nan nan nan nan nan nan nan nan nan nan nan nan nan nan nan nan nan nan nan nan nan nan nan nan nan nan nan nan nan nan nan nan nan nan
nan nan nan nan nan nan nan nan nan nan nan 240 243 243 243 nan 242 242 244 246 249 248 246 244 242 244 252 259 263 259 255 259 261 264 265 267 269 271 274 276 278 279 279 276 273 275 278 278 nan nan nan nan nan nan nan nan nan nan nan nan nan nan nan nan nan nan nan nan nan nan nan nan nan nan nan nan nan nan nan nan nan nan nan nan nan
nan nan nan nan nan nan nan nan nan nan nan nan 238 238 240 241 nan nan 243 245 246 246 245 246 246 247 249 252 256 255 256 259 261 263 265 266 268 268 269 271 272 272 272 269 nan nan nan nan nan nan nan nan nan nan nan nan nan nan nan nan nan nan nan nan nan nan nan nan nan nan nan nan nan nan nan nan nan nan nan nan nan nan nan nan nan
nan nan nan nan nan nan nan nan nan nan nan nan nan nan 236 237 240 241 243 246 nan nan 247 247 248 250 252 254 256 256 257 258 260 262 265 267 268 269 268 268 268 265 265 nan nan nan nan nan nan nan nan nan nan nan nan nan nan nan nan nan nan nan nan nan nan nan nan nan nan nan nan nan nan nan nan nan nan nan nan nan nan nan nan nan nan
nan nan nan nan nan nan nan nan nan nan nan nan nan nan nan nan nan 242 243 245 245 248 249 250 250 251 252 253 254 255 257 258 260 261 261 263 265 266 264 264 262 nan nan nan nan nan nan nan nan nan nan nan nan nan nan nan nan nan nan nan nan nan nan nan nan nan nan nan nan nan nan nan nan nan nan nan nan nan nan nan nan nan nan nan nan
nan nan nan nan nan nan nan nan nan nan nan nan nan nan nan nan nan nan nan nan 247 248 249 251 252 254 254 254 254 256 257 258 257 258 260 260 259 259 259 260 nan nan nan nan nan nan nan nan nan nan nan nan nan nan nan nan nan nan nan nan nan nan nan nan nan nan nan nan nan nan nan nan nan nan nan nan nan nan nan nan nan nan nan nan nan
nan nan nan nan nan nan nan nan nan nan nan nan nan nan nan nan nan nan nan nan nan nan 249 250 250 251 252 252 253 254 256 256 256 255 255 254 nan nan nan nan nan nan nan nan nan nan nan nan nan nan nan nan nan nan nan nan nan nan nan nan nan nan nan nan nan nan nan nan nan nan nan nan nan nan nan nan nan nan nan nan nan nan nan nan nan
nan nan nan nan nan nan nan nan nan nan nan nan nan nan nan nan nan nan nan nan nan nan nan nan nan nan nan nan nan nan nan nan nan nan nan nan nan nan nan nan nan nan nan nan nan nan nan nan nan nan nan nan nan nan nan nan nan nan nan nan nan nan nan nan nan nan nan nan nan nan nan nan nan nan nan nan nan nan nan nan nan nan nan nan nan
nan nan nan nan nan nan nan nan nan nan nan nan nan nan nan nan nan nan nan nan nan nan nan nan nan nan nan nan nan nan nan nan nan nan nan nan nan nan nan nan nan nan nan nan nan nan nan nan nan nan nan nan nan nan nan nan nan nan nan nan nan nan nan nan nan nan nan nan nan nan nan nan nan nan nan nan nan nan nan nan nan nan nan nan nan
nan nan nan nan nan nan nan nan nan nan nan nan nan nan nan nan nan nan nan nan nan nan nan nan nan nan nan nan nan nan nan nan nan nan nan nan nan nan nan nan nan nan nan nan nan nan nan nan nan nan nan nan nan nan nan nan nan nan nan nan nan nan nan nan nan nan nan nan nan nan nan nan nan nan nan nan nan nan nan nan nan nan nan nan nan